This is the latest recevied weather packets stored in our database for station/object KK7ISX. If no packets are shown the sender has not sent any weather packets the latest 10 day(s).
| Time | Temp. | Humidity | Pressure | Rain* | Wind** | Luminosity | Snow |
|---|---|---|---|---|---|---|---|
| 1777903148 | 13.33° C | 63% | 1009 hPa | 0 mm | - | 41 W/m² | - |
| 1777902845 | 13.33° C | 62% | 1008.5 hPa | 0 mm | - | 40 W/m² | - |
| 1777902542 | 12.78° C | 65% | 1008.5 hPa | 0 mm | - | 41 W/m² | - |
| 1777902239 | 11.67° C | 68% | 1008.5 hPa | 0 mm | - | 64 W/m² | - |
| 1777901937 | 10° C | 73% | 1008.5 hPa | 0 mm | - | 66 W/m² | - |
| 1777901634 | 9.44° C | 75% | 1008.5 hPa | 0 mm | - | 58 W/m² | - |
| 1777901332 | 9.44° C | 75% | 1008.6 hPa | 0 mm | - | 51 W/m² | - |
| 1777901029 | 9.44° C | 75% | 1008.4 hPa | 0 mm | - | 42 W/m² | - |
| 1777900726 | 8.89° C | 77% | 1008.2 hPa | 0 mm | - | 36 W/m² | - |
| 1777900423 | 8.33° C | 79% | 1008.4 hPa | 0 mm | - | 31 W/m² | - |
| 1777900120 | 7.78° C | 80% | 1008.3 hPa | 0 mm | - | 26 W/m² | - |
| 1777899817 | 7.78° C | 80% | 1008.3 hPa | 0 mm | - | 22 W/m² | - |
| 1777899514 | 7.78° C | 80% | 1008.3 hPa | 0 mm | - | 18 W/m² | - |
| 1777899212 | 7.78° C | 82% | 1008.3 hPa | 0 mm | - | 14 W/m² | - |
| 1777898909 | 7.22° C | 82% | 1008.1 hPa | 0 mm | - | 10 W/m² | - |
| 1777898606 | 7.22° C | 83% | 1007.9 hPa | 0 mm | - | 7 W/m² | - |
| 1777898303 | 7.22° C | 84% | 1008.2 hPa | 0 mm | - | 5 W/m² | - |
| 1777898000 | 7.78° C | 83% | 1008.1 hPa | 0 mm | - | 3 W/m² | - |
| 1777897696 | 7.78° C | 82% | 1008.1 hPa | 0 mm | - | 1 W/m² | - |
| 1777897393 | 7.78° C | 82% | 1008.1 hPa | 0 mm | - | 1 W/m² | - |
| 1777897089 | 7.78° C | 81% | 1007.9 hPa | 0 mm | - | 0 W/m² | - |
| 1777896785 | 7.78° C | 81% | 1007.9 hPa | 0 mm | - | 0 W/m² | - |
| 1777896483 | 7.78° C | 81% | 1008.1 hPa | 0 mm | - | 0 W/m² | - |
| 1777896180 | 7.78° C | 81% | 1007.8 hPa | 0 mm | - | 0 W/m² | - |
| 1777895878 | 8.33° C | 80% | 1008 hPa | 0 mm | - | 0 W/m² | - |
* Rain latest hour (hover to see other rain measurements)
** Current wind speed in m/s (hover to see current wind gust speed)